Simultaneous Nadir Overpasses (SNOs) Predictions

Prediction of SNOs between GOES-15 and METOP-C Satellite Orbit:

Table of predicted SNOs for the next 14.0 days since TLE Epoch: 1/28/2023
Index Date Time (GOES-15) GOES-15 Lat,Lon METOP-C Lat,Lon Distance(km) Time Diff (sec)
1 01/28/2023 06:16:24 0.02,-128.28 -0.60,-131.03 313.17 80
2 01/29/2023 05:53:06 0.01,-128.29 0.52,-126.04 256.35 80
3 01/30/2023 18:11:57 -0.02,-128.24 0.52,-130.60 268.46 80
4 01/31/2023 17:53:58 -0.02,-128.25 -0.61,-125.61 300.81 80
5 02/02/2023 06:10:21 0.03,-128.30 -0.43,-130.21 217.73 80
6 02/03/2023 05:52:22 0.02,-128.30 0.70,-125.22 351.28 80
7 02/04/2023 18:08:34 -0.03,-128.25 0.33,-129.78 174.31 80
8 02/05/2023 17:50:35 -0.02,-128.25 -0.81,-124.79 394.63 80
9 02/07/2023 06:06:57 0.03,-128.30 -0.22,-129.39 124.18 80
10 02/08/2023 05:48:59 0.02,-128.30 0.92,-124.40 444.64 80
11 02/09/2023 18:05:10 -0.03,-128.24 0.10,-128.96 81.48 80
12 02/10/2023 17:47:11 -0.02,-128.24 -0.98,-123.96 487.13 80
